Regional Weather Roundup
Issued by NWS

Home | Current Version | Previous Version | Text Only | Print | Product List | Glossary On
Versions: 1 2 3 4 5 6 7 8 9 10 11 12 13 14 15 16 17 18 19 20 21 22 23 24 25 26 27 28 29 30 31 32 33 34 35 36 37 38 39 40 41 42 43 44 45 46 47 48 49 50
000
ASUS46 KSEW 020610
RWRWA

WASHINGTON REGIONAL WEATHER ROUNDUP
NATIONAL WEATHER SERVICE SEATTLE WA
1100 PM PDT SAT AUG 01 2015

NOTE:"FAIR" INDICATES FEW OR NO CLOUDS BELOW 12,000 FEET WITH NO
SIGNIFICANT WEATHER AND/OR OBSTRUCTIONS TO VISIBILITY.

WAZ505-507>509-020700-
SEATTLE, TACOMA, EVERETT, AND VICINITY

CITY           SKY/WX    TMP DP  RH WIND       PRES   REMARKS
EVERETT        CLEAR     69  49  48 NE7       29.94F
6HR MIN TEMP:  66; 6HR MAX TEMP:  87;

BOEING FIELD   CLEAR     78  47  33 VRB3      29.91S
6HR MIN TEMP:  78; 6HR MAX TEMP:  91;

RENTON         CLEAR     75  52  44 NW8       29.90F
6HR MIN TEMP:  75; 6HR MAX TEMP:  91;

SEATAC AIRPORT PTCLDY    77  47  34 NE10      29.92F
6HR MIN TEMP:  77; 6HR MAX TEMP:  92;

JBLM-MCCHORD   CLEAR     73  49  42 N2        29.91S
6HR MIN TEMP:  73; 6HR MAX TEMP:  92;

PUYALLUP       MOCLDY    68  52  56 CALM      29.92S
BREMERTON      CLEAR     68  48  49 NE6       29.95R
6HR MIN TEMP:  68; 6HR MAX TEMP:  91;

JBLM-FT LEWIS  CLEAR     75  48  37 N8        29.90F
6HR MIN TEMP:  75; 6HR MAX TEMP:  93;

TACOMA NARROWS CLEAR     73  48  41 N6        29.91S
6HR MIN TEMP:  72; 6HR MAX TEMP:  89;

$$

WAZ001-503-506-510-514-515-020700-
NORTH INTERIOR

CITY           SKY/WX    TMP DP  RH WIND       PRES   REMARKS
BELLINGHAM     CLEAR     65  57  75 CALM      29.92F
6HR MIN TEMP:  63; 6HR MAX TEMP:  85; 6HR PCP: TRACE;

FRIDAY HARBOR  PTCLDY    55  51  86 CALM      29.93S
6HR MIN TEMP:  54; 6HR MAX TEMP:  81;

EASTSOUND      PTCLDY    64  54  68 CALM      29.91R
PORT ANGELES   PTCLDY    58  53  84 NW9       29.94F
6HR MIN TEMP:  58; 6HR MAX TEMP:  74;

PORT TOWNSEND  FAIR      68  54  60 NW10      29.91S
NAS WHIDBEY    PTCLDY    58  54  86 SW6       29.96F
6HR MIN TEMP:  58; 6HR MAX TEMP:  64;

ARLINGTON      CLEAR     64  46  52 CALM      29.94F
6HR MIN TEMP:  63; 6HR MAX TEMP:  90;

BURLINGTON     CLEAR     61  52  72 CALM      29.92F
$$

WAZ020-022-039-040-504-511-512-020700-
SOUTHWEST INTERIOR

CITY           SKY/WX    TMP DP  RH WIND       PRES   REMARKS
SHELTON        CLEAR     71  53  52 W3        29.90S
6HR MIN TEMP:  71; 6HR MAX TEMP:  96;

OLYMPIA        CLEAR     74  46  36 N7        29.91R
6HR MIN TEMP:  74; 6HR MAX TEMP:  95;

CHEHALIS       FAIR      68  55  64 CALM      29.91R
KELSO          PTCLDY    72  52  49 CALM      29.92R
6HR MIN TEMP:  72; 6HR MAX TEMP:  95;

VANCOUVER      PTCLDY    79  51  37 NW6       29.84R
6HR MIN TEMP:  79; 6HR MAX TEMP:  98;

SCAPPOOSE, OR  PTCLDY    80  46  30 NW10      29.84S
6HR MIN TEMP:  80; 6HR MAX TEMP:  98;

PORTLAND, OR   MOCLDY    79  55  43 NW9       29.84S
6HR MIN TEMP:  78; 6HR MAX TEMP:  98;

$$

WAZ021-516-517-020700-
WASHINGTON COAST

CITY           SKY/WX    TMP DP  RH WIND       PRES   REMARKS
FORKS          PTCLDY    58  56  93 NE3       29.98S
6HR MIN TEMP:  58; 6HR MAX TEMP:  79;

HOQUIAM        CLEAR     59  53  80 SW7       29.94S
6HR MIN TEMP:  59; 6HR MAX TEMP:  74;

ASTORIA, OR    PTCLDY    60  57  89 W6        29.94S
6HR MIN TEMP:  60; 6HR MAX TEMP:  72;

$$

WAZ019-023-024-040-518-519-020700-
CASCADE MOUNTAINS AND COLUMBIA GORGE

CITY           SKY/WX    TMP DP  RH WIND       PRES   REMARKS
TROUTDALE, OR  PTCLDY    79  52  38 CALM      29.83R
6HR MIN TEMP:  79; 6HR MAX TEMP:  99;

THE DALLES, OR CLEAR     87  47  24 NW13      29.77R
6HR MIN TEMP:  86; 6HR MAX TEMP: 107;

$$

WAZ026-027-041>044-520-521-020700-
EAST SLOPES

CITY           SKY/WX    TMP DP  RH WIND       PRES   REMARKS
OMAK           CLOUDY    70  32  24 NW8       29.83R
6HR MIN TEMP:  67; 6HR MAX TEMP:  98;

WENATCHEE      CLEAR     88  29  12 W16       29.84R
6HR MIN TEMP:  86; 6HR MAX TEMP: 105;

ELLENSBURG     CLEAR     75  33  21 NW13      29.89F
6HR MIN TEMP:  75; 6HR MAX TEMP: 102;

YAKIMA         CLEAR     85  37  18 NW7       29.84S
6HR MIN TEMP:  80; 6HR MAX TEMP: 105;

$$

WAZ028-034-035-020700-
COLUMBIA BASIN

CITY           SKY/WX    TMP DP  RH WIND       PRES   REMARKS
EPHRATA        CLEAR     85  31  14 N8        29.81S
6HR MIN TEMP:  83; 6HR MAX TEMP: 103;

MOSES LAKE     CLEAR     74  46  36 N3        29.82R
6HR MIN TEMP:  73; 6HR MAX TEMP: 103;

PASCO          CLEAR     72  56  57 CALM      29.77R
6HR MIN TEMP:  72; 6HR MAX TEMP: 104;

HERMISTON, OR  PTCLDY    72  42  34 SE7       29.76F
6HR MIN TEMP:  71; 6HR MAX TEMP: 104;

$$

WAZ036>038-020700-
NORTHEAST WASHINGTON

CITY           SKY/WX    TMP DP  RH WIND       PRES   REMARKS
SPOKANE GEIGER MOCLDY    80  21  11 SW5       29.89S
6HR MIN TEMP:  77; 6HR MAX TEMP:  98;

SPOKANE FELTS  MOCLDY    69  27  20 CALM      29.88R HAZE
6HR MIN TEMP:  69; 6HR MAX TEMP: 100;

FAIRCHILD AFB  MOCLDY    74  25  16 SW6       29.90S
6HR MIN TEMP:  73; 6HR MAX TEMP:  97;

COEURDALENE,ID PTCLDY    64  43  45 CALM      29.89S
6HR MIN TEMP:  64; 6HR MAX TEMP:  97;

DEER PARK      PTCLDY    59  27  29 N3        29.88S
6HR MIN TEMP:  59; 6HR MAX TEMP:  96;

$$

WAZ029>033-020700-
SOUTHEAST WASHINGTON

CITY           SKY/WX    TMP DP  RH WIND       PRES   REMARKS
PULLMAN        MOCLDY    67  28  23 NE6       29.94S HAZE
6HR MIN TEMP:  64; 6HR MAX TEMP:  97;

LEWISTON, ID   PTCLDY    82  26  13 SW9       29.84S
6HR MIN TEMP:  81; 6HR MAX TEMP: 104;

WALLA WALLA    CLEAR     82  27  13 E9        29.81F
6HR MIN TEMP:  82; 6HR MAX TEMP: 103;

PENDLETON, OR  PTCLDY    77  20  12 SE13      29.84S
6HR MIN TEMP:  73; 6HR MAX TEMP: 100;

$$



USA.gov is the U.S. government's official web portal to all federal, state and local government web resources and services.